OBJECT H, 64883

Orbit data source: Space-Track

You're viewing an Uncataloged Satellite

Recently launched and/or uncataloged satellites may have evolving metadata. Metadata may include but not limited to: Owner, Maufacturer, Bus, Motor, and Mission.

OBJECT H, 64883 is a satellite in SSO that was launched on Fri, 25 Jul 2025 UTC via a SOYUZ-2-1B launch vehicle from the Vostochny Cosmodrome (VOSTO). Unknown objects in Earth's orbit typically refer to objects detected orbiting the Earth but have not yet been identified or cataloged. These objects could be anything from previously untracked satellites, spent rocket stages, debris from satellite collisions, or even natural meteoroids temporarily captured by Earth's gravity.

Loading next visibility...
Identifier
64883, 2025-155H
Orbit
SSO
Country
Flag of TBDTBD
Related business
None
Manufacturer
Unknown
Mission
Operational Commercial Technology
Bus & Motor
Unknown
Mass
Unknown
Launch date (UTC)
2025-07-25 (9 months ago)
Launch vehicle
SOYUZ-2-1B
Launch site
Vostochny Cosmodrome (VOSTO)
Object type
Unknown
Shape & HBR
Box, 1.1 m
Radar Cross Section
0.035 m², Small (<0.1 m²)

Expand to show TLE details & history
Last TLE update: 6 hours ago

TLE from 6 hours ago
0 OBJECT H
1 64883U 25155H   26121.17610794  .00013590  00000-0  48852-3 0  9992
2 64883  97.4545  89.5700 0006785   0.3066 359.8177 15.28734337 73570
Epoch: 2026-05-01T04:13Z
TLE epoch observation values (Epoch: 2026-05-01T04:13:35.726Z)
Latitude
-0.00002°
Longitude
167.05903°
Altitude
478.042 km
Speed
7.629 km/s
True Right ascension
05h 58m 16s
True Declination
0° 00' 00"
Sunlit
Object was in daylight at epoch
Visualization orbit readout
Latitude
Unknown
Longitude
Unknown
Altitude
Unknown
Speed
Unknown
Apparent Right ascension
Unknown
Apparent Declination
Unknown
Sunlit
N/A
Visualization observer readout
Local Sidereal Time
18:10:48
Azimuth
Unknown
Elevation
Unknown
Doppler factor
Unknown
Orbital elements
Apogee altitude
481.202 km
Perigee altitude
471.9 km
Semi-major axis
6,854.688 km
Eccentricity
0.00068
Inclination
97.4545°
RAAN
89.57°
Arg. of periapsis
0.3066°
True anomaly
359.81745°
Mean anomaly
359.8177°
Eccentric anomaly
359.81758°
Mean motion
3.82439 °/min
Orbital period
94.13 mins
BSTAR
0.00048852
Loading maneuver chart data...
Computing Atmospheric mass density...
Loading historical data...
Loading historical data...
Loading historical data...
Loading historical data...
Loading historical data...
Loading historical data...
Loading historical data...

Documentation

Showing up to 5 results
|